Bloomington Hills, Utah
Current Conditions -  °F | °C
As of 6:35 PM on Sunday 23 Nov 2014 (Local Time) from KSGU Reporting Station
Clear Clear  
Wind Chill: 45°   Ceiling: Unl
Heat Index: 48°   Visibility: 10mi
Dew Point: 10°   Wind: 7mph
Humidity: 22%   Direction: 60°ENE
Pressure: 30.23"   Gusts: NA
Location:  37.0469°N, 113.607°W
Report Text: KSGU 240135Z AUTO 06006KT 10SM CLR 09/M12 A3023 RMK AO1
Loading
Personal Weather Stations






























Interactive Weather Map New forecast layout! Learn more

10-Day Weather Forecast

Advertisements
Track Severe Weather on mobile